Weather History for Ft Lauderdale, FL

Change the Weather History Date:

Saturday, August 30, 2014

  Actual Average Record
Temperature  
Mean Temperature 85 °F 84 °F  
Max Temperature 91 °F 90 °F 97 °F (1954)
Min Temperature 78 °F 78 °F 68 °F (1969)
Degree Days  
Heating Degree Days 0 0  
Month to date heating degree days 0 0  
Since 1 June heating degree days 0 0  
Since 1 July heating degree days 0 0  
Cooling Degree Days 20 19  
Month to date cooling degree days 622 589  
Year to date cooling degree days 3288 3148  
Since 1 June cooling degree days 1753 1730  
Growing Degree Days 34 (Base 50)    
Moisture  
Dew Point 75 °F    
Average Humidity 66    
Maximum Humidity 75    
Minimum Humidity 56    
Precipitation  
Precipitation 0.22 in 0.27 in 2.31 in (1936)
Month to date precipitation 5.55 7.16  
Year to date precipitation 43.97 40.79  
Snow  
Snow 0.00 in - - ()
Month to date snowfall 0.0  
Since 1 June snowfall 0.0  
Since 1 July snowfall 0.0  
Snow Depth 0.00 in    
Sea Level Pressure  
Sea Level Pressure 30.08 in    
Wind  
Wind Speed 13 mph (ESE)    
Max Wind Speed 21 mph    
Max Gust Speed 26 mph    
Visibility 10 miles    
Events Rain , Thunderstorm    
T = Trace of Precipitation, MM = Missing Value Source: NWS Daily Summary

Daily Weather History Graph

Daily Weather History Graph

Search for Another Location

Airport:

Trip Planner

Search our weather history database for the weather conditions in past years. The results will help you decide how hot, cold, wet, or windy it might be!

Date:

Astronomy

Aug. 30, 2014 Rise Set
Actual Time 6:59 AM EDT 7:42 PM EDT
Civil Twilight 6:36 AM EDT 8:05 PM EDT
Nautical Twilight 6:08 AM EDT 8:33 PM EDT
Astronomical Twilight 5:40 AM EDT 9:01 PM EDT
Moon 11:15 AM EDT (8/30) 10:47 PM EDT (8/30)
Length of Visible Light 13h 29m
Length of Day
12h 42m
Waxing Crescent, 23% of the Moon is Illuminated
Aug 30
Waxing Crescent
Sep 2
First Quarter
Sep 8
Full
Sep 15
Last Quarter
Sep 24
New

Hourly Weather History & Observations

Time (EDT) Temp. Heat Index Dew Point Humidity Pressure Visibility Wind Dir Wind Speed Gust Speed Precip Events Conditions
12:53 AM 86.0 °F 96.9 °F 77.0 °F 74% 30.10 in 10.0 mi East 10.4 mph - N/A   Mostly Cloudy
1:53 AM 86.0 °F 96.0 °F 75.9 °F 72% 30.09 in 10.0 mi East 9.2 mph - N/A   Partly Cloudy
2:53 AM 81.0 °F 86.2 °F 73.9 °F 79% 30.08 in 7.0 mi NNE 5.8 mph - 0.14 in Rain Light Rain
3:03 AM 78.1 °F - 72.0 °F 81% 30.08 in 3.0 mi NE 12.7 mph 17.3 mph 0.08 in Rain , Thunderstorm Heavy Thunderstorms and Rain
3:40 AM 84.0 °F 96.0 °F 79.0 °F 85% 30.06 in 10.0 mi ESE 10.4 mph - 0.08 in   Mostly Cloudy
3:53 AM 84.0 °F 94.8 °F 78.1 °F 82% 30.05 in 10.0 mi SE 10.4 mph - 0.08 in   Mostly Cloudy
4:53 AM 84.0 °F 92.6 °F 75.9 °F 76% 30.06 in 10.0 mi SE 10.4 mph - N/A   Scattered Clouds
5:53 AM 84.0 °F 92.6 °F 75.9 °F 76% 30.06 in 10.0 mi SE 10.4 mph - N/A   Partly Cloudy
6:53 AM 84.9 °F 93.3 °F 75.0 °F 72% 30.08 in 10.0 mi SE 11.5 mph - N/A   Mostly Cloudy
7:53 AM 86.0 °F 95.1 °F 75.0 °F 70% 30.10 in 10.0 mi ESE 13.8 mph - N/A   Overcast
8:53 AM 87.1 °F 97.3 °F 75.9 °F 69% 30.09 in 10.0 mi ESE 12.7 mph - N/A   Mostly Cloudy
9:53 AM 89.1 °F 99.1 °F 75.0 °F 63% 30.10 in 10.0 mi East 13.8 mph - N/A   Scattered Clouds
10:53 AM 89.1 °F 99.1 °F 75.0 °F 63% 30.11 in 10.0 mi East 13.8 mph - N/A   Partly Cloudy
11:53 AM 90.0 °F 101.3 °F 75.9 °F 63% 30.11 in 10.0 mi SE 12.7 mph - N/A   Scattered Clouds
12:12 PM 90.0 °F 101.3 °F 75.9 °F 63% 30.11 in 10.0 mi ESE 13.8 mph - N/A   Mostly Cloudy
12:53 PM 90.0 °F 99.0 °F 73.9 °F 59% 30.10 in 10.0 mi East 13.8 mph 21.9 mph N/A   Scattered Clouds
1:53 PM 91.0 °F 100.4 °F 73.9 °F 57% 30.09 in 10.0 mi ESE 15.0 mph 19.6 mph N/A   Mostly Cloudy
2:53 PM 91.0 °F 101.6 °F 75.0 °F 59% 30.07 in 10.0 mi SE 15.0 mph 23.0 mph N/A   Scattered Clouds
3:53 PM 89.1 °F 100.2 °F 75.9 °F 65% 30.06 in 10.0 mi East 11.5 mph - N/A   Scattered Clouds
4:53 PM 89.1 °F 99.1 °F 75.0 °F 63% 30.04 in 10.0 mi ESE 17.3 mph - N/A   Scattered Clouds
5:53 PM 89.1 °F 97.0 °F 73.0 °F 59% 30.04 in 10.0 mi East 16.1 mph - N/A   Mostly Cloudy
6:53 PM 88.0 °F 96.5 °F 73.9 °F 63% 30.04 in 10.0 mi ESE 15.0 mph - N/A   Scattered Clouds
7:53 PM 87.1 °F 96.3 °F 75.0 °F 67% 30.06 in 10.0 mi East 12.7 mph - N/A   Scattered Clouds
8:53 PM 82.9 °F 87.5 °F 71.1 °F 67% 30.08 in 10.0 mi SE 9.2 mph - N/A   Mostly Cloudy
9:53 PM 87.1 °F 95.4 °F 73.9 °F 65% 30.09 in 10.0 mi ESE 15.0 mph - N/A   Mostly Cloudy
10:53 PM 87.1 °F 94.5 °F 73.0 °F 63% 30.10 in 10.0 mi ESE 13.8 mph - N/A   Mostly Cloudy
11:53 PM 86.0 °F 95.1 °F 75.0 °F 70% 30.09 in 10.0 mi ESE 12.7 mph - N/A   Scattered Clouds